Everett, WA
on Wednesday, November 28, 2012

Wednesday
Previous Day Next Day
Daily Summary
 ActualAverageRecord
Temperature
Mean Temperature °F °F  
Max Temperature 48°F 46°F 59°F (1949)
Min Temperature 37°F 33°F 0°F (1993)
Degree Days
Heating Degree Days 22    
Moisture
Dew Point 38°F   
Average Humidity 80    
Maximum Humidity 90    
Minimum Humidity 54    
Precipitation
Precipitation 0.22 in in in ()
Wind
Wind Speed 2 mph   
Max Wind Speed 12 mph   
Max Gust Speed 18 mph   
Visibility 9 miles   
Events Rain   
Averages and records for this station are not official NWS values.
Key: T is trace of precipitation, MM is missing value
Source: NWS Daily Summary
Seasonal Weather Averages
Time(PST)TemperatureDew PointHumidity Pressure Visibility Wind DirectionWind SpeedGust SpeedPrecipitationEvents Conditions
12:53 AM 39.9°F 36.0°F 86% 29.89 in 10.0 miles Calm Calm - N/A   Clear
1:53 AM 41.0°F 34.0°F 76% 29.87 in 10.0 miles Calm Calm - N/A   Clear
2:53 AM 39.9°F 36.0°F 86% 29.87 in 10.0 miles Calm Calm - N/A   Clear
3:53 AM 37.9°F 35.1°F 89% 29.84 in 10.0 miles Calm Calm - N/A   Clear
4:53 AM 39.9°F 36.0°F 86% 29.82 in 10.0 miles NNE 4.6 mph - N/A   Clear
5:53 AM 39.9°F 35.1°F 83% 29.79 in 10.0 miles North 3.5 mph - N/A   Scattered Clouds
6:53 AM 39.9°F 36.0°F 86% 29.77 in 10.0 miles Calm Calm - N/A   Clear
7:53 AM 39.9°F 36.0°F 86% 29.74 in 10.0 miles Calm Calm - N/A   Clear
8:53 AM 41.0°F 36.0°F 82% 29.74 in 10.0 miles Calm Calm - N/A   Mostly Cloudy
9:53 AM 46.0°F 36.0°F 68% 29.71 in 10.0 miles Calm Calm - N/A   Mostly Cloudy
10:53 AM 48.9°F 33.1°F 54% 29.67 in 10.0 miles Variable 3.5 mph - N/A   Overcast
11:53 AM 48.0°F 36.0°F 63% 29.66 in 10.0 miles Calm Calm - N/A   Overcast
12:53 PM 48.9°F 36.0°F 61% 29.64 in 10.0 miles Calm Calm - N/A   Overcast
1:53 PM 48.9°F 37.0°F 64% 29.64 in 9.0 miles WSW 5.8 mph - 0.00 in Rain Light Rain
2:53 PM 46.9°F 39.9°F 77% 29.62 in 8.0 miles Variable 5.8 mph - 0.05 in Rain Light Rain
3:53 PM 46.9°F 41.0°F 80% 29.63 in 6.0 miles Variable 5.8 mph - 0.02 in Rain Light Rain
4:53 PM 45.0°F 42.1°F 90% 29.63 in 9.0 miles ESE 8.1 mph - 0.04 in Rain Light Rain
5:53 PM 46.0°F 43.0°F 89% 29.63 in 10.0 miles SE 6.9 mph 18.4 mph 0.00 in Rain Light Rain
6:53 PM 46.9°F 43.0°F 86% 29.67 in 8.0 miles ESE 8.1 mph - 0.02 in Rain Light Rain
7:53 PM 46.9°F 42.1°F 83% 29.69 in 10.0 miles SE 8.1 mph - 0.00 in   Overcast
8:53 PM 46.0°F 43.0°F 89% 29.71 in 4.0 miles SSE 5.8 mph - 0.06 in Rain Light Rain
9:53 PM 46.9°F 43.0°F 86% 29.73 in 9.0 miles Variable 3.5 mph - 0.03 in Rain Light Rain
10:53 PM 46.9°F 42.1°F 83% 29.73 in 10.0 miles Variable 4.6 mph - 0.00 in   Mostly Cloudy
11:53 PM 48.9°F 42.1°F 77% 29.72 in 10.0 miles SSE 11.5 mph - N/A   Overcast
Moon Phase
Nov. 28 Dec. 06 Dec. 13 Dec. 20 Dec. 28
Sunrise:07:34 AM (PST) Moon Rise:04:38 PM (PST)11/28
Sunset:04:19 PM (PST) Moon Set:07:36 AM (PST)11/28

Copyright © 2014 The Weather Underground, Inc.